Regional Weather Roundup
Issued by NWS Grand Forks, ND

Home | Current Version | Previous Version | Graphics & Text | Print | Product List | Glossary On
Versions: 1 2 3 4 5 6 7 8 9 10 11 12 13 14 15 16 17 18 19 20 21 22 23 24 25 26 27 28 29 30 31 32 33 34 35 36 37 38 39 40 41 42 43 44 45 46 47 48 49 50
000
ASUS43 KFGF 021931
RWRFGF
PRAIRIE TO PINES  WEATHER ROUNDUP
NATIONAL WEATHER SERVICE EASTERN NORTH DAKOTA/GRAND FORKS ND
200 PM CDT WED SEP 02 2015

 **SATELLITE DATA USED TO AUGMENT SKY COVER AT AUTOMATED STATIONS**
 *****  WEATHER ACROSS EASTERN NORTH DAKOTA  *****

CITY           SKY/WX    TMP DP  RH WIND       PRES   REMARKS
GRAND FORKS    SUNNY     86  66  51 S15G22    29.80F
GRAND FRKS AFB SUNNY     85  68  57 S9        29.81F
GRAND FRKS NWS   N/A     84 N/A N/A S9          N/A
DEVILS LAKE    SUNNY     86  66  51 SE14G20   29.77S
FARGO          SUNNY     88  66  48 SE14      29.82S HX  90
WAHPETON ARPT  CLEAR     86  64  48 SE15      29.83S
$$

 ***** WEATHER ACROSS CENTRAL AND WESTERN NORTH DAKOTA  *****

CITY           SKY/WX    TMP DP  RH WIND       PRES   REMARKS
BISMARCK       SUNNY     85  69  58 SE8       29.76F
MINOT          SUNNY     91  63  39 S12       29.73F HX  92
JAMESTOWN      SUNNY     87  69  54 SE14      29.78F HX  91
MINOT AFB      MOSUNNY   92  67  43 SE13      29.72F HX  95
GARRISON         N/A     89  64  43 S9        29.75F HX  90
WILLISTON      SUNNY     93  53  25 S17G25    29.70F HX  90
DICKINSON      SUNNY     95  47  19 S17       29.75F HX  91
HETTINGER      SUNNY     93  48  21 S12       29.79F
$$

 *****  OTHER AIRPORT OBSERVATIONS IN OUR AREA  *****

CITY           SKY/WX    TMP DP  RH WIND       PRES   REMARKS
WALHALLA       FAIR      84  73  70 MISG      29.78F HX  91
GRAFTON AIRPOR FAIR      86  68  54 S10G20    29.81S
VALLEY CITY AR FAIR      84  72  65 SE15      29.82R
CANDO          FAIR      86  68  54 S14       29.78S
CAVALIER APRT  FAIR      84  70  61 SE14G21   29.79S
GWINNER        FAIR      88  72  58 E14       29.81S HX  94
SHEYENNE NWR     N/A     85  70  59 SE14      29.95S
ROLLA            N/A     90  64  43 S13G20    29.79S HX  91
 ***** THE ABOVE OBSERVATIONS ARE NON NWS ARE NOT QUALITY
       CONTROLLED AND MAY MIS-REPORT RAIN FOR SNOW...
$$

  *****  WEATHER ACROSS NORTHERN MINNESOTA  *****

CITY           SKY/WX    TMP DP  RH WIND       PRES   REMARKS
FLAG ISLAND    MOSUNNY   77  66  69 SE10      29.86S
WARROAD        SUNNY     84  72  65 S7        29.86S
ROSEAU         SUNNY     88  70  55 S10       29.85S HX  92
HALLOCK        SUNNY     88  64  45 S18       29.80F
THF RVR FALLS  SUNNY     86  64  48 SE20      29.84S
BAUDETTE       MOSUNNY   84  70  62 S14       29.88S
WASKISH        MOSUNNY   82  70  65 SE13      29.89S
CROOKSTON      SUNNY     88  64  45 S17       29.82F
STEPHEN NDAWN    N/A     88  66  48 S10         N/A  HX  90
GREENBUSH NDAW   N/A     88  64  45 S10         N/A
$$
  *****  WEATHER ACROSS CENTRAL AND WEST MINNESOTA  *****

CITY           SKY/WX    TMP DP  RH WIND       PRES   REMARKS
FOSSTON        SUNNY     88  57  35 SE13G20   29.87S
BEMIDJI        SUNNY     83  64  53 SE16      29.90S
PARK RAPIDS    SUNNY     84  63  49 SE15      29.90F
ELBOW LAKE     FAIR      82  70  66 SE10G20   29.86S
WADENA         SUNNY     82  66  57 SE15      29.89F
DETROIT LAKES  SUNNY     84  63  48 SE14G21   29.88S
MOORHEAD       SUNNY     88  66  48 SE14      29.82F HX  90
FERGUS FALLS   SUNNY     84  66  54 SE14      29.83F
MORRIS MN      SUNNY     84  72  65 SE16      29.84F
STAPLES        MOSUNNY   81  64  57 E6        29.90S
$$
  *****  WEATHER ELSEWHERE ACROSS MINNESOTA  *****

CITY           SKY/WX    TMP DP  RH WIND       PRES   REMARKS
DULUTH         CLOUDY    72  65  78 SE9       29.97R
INTRNTL FALLS  SUNNY     80  65  59 VRB7      29.92F
ELY            CLOUDY    72  63  73 SE5       29.98S
CLOQUET        PTSUNNY   77  63  61 SE8       29.95F
WHEATON        SUNNY     82  70  65 SE15      29.84S
BRAINERD       MOSUNNY   79  65  62 SE15G23   29.91F
HIBBING        MOSUNNY   80  60  50 VRB7      29.94F
ALEXANDRIA     MOSUNNY   81  69  67 E15       29.90S
SAINT CLOUD    CLOUDY    75  69  81 E9        29.91R
MINNEAPOLIS    CLOUDY    76  68  76 E14       29.91R
$$

  *****  WEATHER ACROSS SOUTH DAKOTA  *****

CITY           SKY/WX    TMP DP  RH WIND       PRES   REMARKS
SIOUX FALLS    MOSUNNY   85  73  67 S13       29.83F HX  91
BROOKINGS      SUNNY     84  73  70 SE15      29.85S HX  91
WATERTOWN      MOSUNNY   86  71  60 SE15      29.83S HX  91
HURON          MOSUNNY   86  72  62 SE10      29.77S HX  92
SISSETON         N/A     88  69  53 S14G20    29.81S HX  92
ABERDEEN       MOSUNNY   87  71  58 SE12      29.78S HX  93
MITCHELL       PTSUNNY   89  71  55 SE16      29.78F HX  95
PIERRE         MOSUNNY   88  67  49 CALM      29.75F HX  91
MOBRIDGE       MOSUNNY   86  72  62 SE10      29.76S HX  92
RAPID CITY     SUNNY     92  56  29 E5        29.82F HX  90
$$

  *****  SOME WEATHER IN NEARBY STATES *****

CITY           SKY/WX    TMP DP  RH WIND       PRES   REMARKS
GLASGOW MT     MOSUNNY   88  39  17 CALM      29.65F
GREAT FALLS MT CLOUDY    78  33  19 SW9       29.72S
CHEYENNE WY    PTSUNNY   85  34  16 NW9G20    30.12F
SCOTTSBLUFF NE SUNNY     90  47  22 NW7       29.95F
OMAHA NE       MOSUNNY   86  70  58 S17G26    29.88F HX  90
DES MOINES IA  MOSUNNY   87  68  52 SW10      29.92F HX  90
DAVENPORT IA   CLOUDY    82  68  62 SW7       30.01F
CHICAGO IL     MOSUNNY   88  68  51 SW9       30.01S HX  91
EAU CLAIRE WI  CLOUDY    71  66  84 N9        29.94F
LA CROSSE WI   PTSUNNY   86  68  54 S8        29.92F
$$

  *****  SOME NATIONAL WEATHER *****

CITY           SKY/WX    TMP DP  RH WIND       PRES   REMARKS
LA GUARDIA NY  PTSUNNY   87  66  49 S12       29.93F
RALEIGH NC     PTSUNNY   89  70  53 W5        30.02F HX  94
ATLANTA GA     PTSUNNY   89  68  49 VRB6      30.07F HX  93
NEW ORLEANS LA LGT RAIN  78  73  84 S9        30.08F
OKLAHOMA CITY  MOSUNNY   91  65  41 S14       30.01F HX  93
ALBUQUERQUE NM PTSUNNY   85  48  27 SW5       30.19F
SALT LAKE CITY MOSUNNY   88  46  23 SE23      29.97F
LOS ANGELES CA PTSUNNY   73  61  65 W14       29.97F
BOISE ID       CLOUDY    78  37  22 N6        29.86F
SEATTLE WA     MOSUNNY   65  47  52 SW14      29.91S
$$

*** WEATHER ACROSS MANITOBA...SASKATCHEWAN AND ONTARIO ***
                ***ONTARIO***

CITY           SKY/WX    TMP DP  RH WIND       PRES   REMARKS
GERALDTON      PTSUNNY   81  57  44 VRB2      29.99S
THUNDER BAY    PTSUNNY   73  59  60 NE7       30.00S
SIOUX LOOKOUT  MOSUNNY   82  57  42 S12G20    29.94F
TORONTO        PTSUNNY   91  66  43 NW12G18   29.96F HX  94
BIG TROUT LK   MOSUNNY   68  57  68 SE9       29.92R
PICKLE LAKE    MOSUNNY   82  55  39 SW10G18   29.94S
DRYDEN         SUNNY     84  57  39 S15G24    29.92F
KENORA         MOSUNNY   81  70  69 S14G25    29.89S
$$
                *** MANITOBA***

CITY           SKY/WX    TMP DP  RH WIND       PRES   REMARKS
BRANDON        MOSUNNY   84  68  58 SE8       29.76F
DAUPHIN        SUNNY     82  50  32 E5        29.77S
ISLAND LAKE    PTSUNNY   70  64  83 SE9       29.78F
PILOT MOUND      N/A     91  57  31 S12G17      N/A  HX  90
THE PAS        CLOUDY    68  55  64 NE5       29.76F
THOMPSON       PTSUNNY   63  57  82 VRB2      29.80F
WINNIPEG       MOSUNNY   88  70  55 SE16      29.79R HX  92
LYNN LAKE      PTSUNNY   63  43  48 VRB3      29.81S
CHURCHILL      CLOUDY    57  50  77 S15       29.84S
GILLAM         PTSUNNY   66  57  72 VRB7      29.82S
$$
                ***SASKATCHEWAN***

CITY           SKY/WX    TMP DP  RH WIND       PRES   REMARKS
ESTEVAN        MOSUNNY   91  59  33 S22G29    29.70F HX  90
KINDERSLEY     CLOUDY    73  36  25 W13       29.61S
LLOYDMINSTER   PTSUNNY   70  46  43 S12       29.56F
PRINCE ALBERT  CLOUDY    72  55  56 SE6       29.64F
REGINA         PTSUNNY   86  55  35 SE22G33   29.63F
YORKTON        SUNNY     82  45  26 SE15      29.73F
N. BATTLEFORD  SUNNY     66  48  52 SE10      29.63R
LA RONGE       PTSUNNY   64  46  52 NE15      29.71F
SASKATOON      CLOUDY    75  52  43 SE16      29.62F
SWIFT CURRENT  PTSUNNY   75  43  31 SW16      29.63S
$$
NOTE: THESE ARE AUTOMATED STATIONS WITH LIMITED QUALITY CONTROL
      "FAIR" INDICATES FEW OR NO CLOUDS BELOW 12,000 FEET WITH NO
      SIGNIFICANT WEATHER AND/OR OBSTRUCTIONS TO VISIBILITY.
      SKY/WX - SKY CONDITION AND SIGNIFICANT WEATHER.
      TMP - AIR TEMPERATURE.    DP   - DEWPOINT TEMPERATURE.
      RH  - RELATIVE HUMIDITY.  PRES - PRESSURE.
      HX  - HEAT INDEX.         WCI  - WIND CHILL INDEX.
$



USA.gov is the U.S. government's official web portal to all federal, state and local government web resources and services.